{"data":{"norad_id":38711,"epoch":"2026-09-20T03:48:53.273088Z","epoch_age_seconds":58631,"freshness":"FRESH","line1":"1 38711U 12039E   26263.15894992  .00000080  00000+0  53575-4 0  9997","line2":"2 38711  98.9818  22.3953 0010477 252.8535 107.1497 14.25454080736376","mean_motion":14.2545408,"eccentricity":0.0010477,"inclination_deg":98.9818,"raan_deg":22.3953,"arg_perigee_deg":252.8535,"mean_anomaly_deg":107.1497,"bstar":5.3575e-5,"rev_number":73637,"period_min":101.02044114953,"perigee_km":799.43853420892,"apogee_km":814.49419980414,"semimajor_km":7185.1033670065,"source":"CELESTRAK","updated_at":"2026-09-20T09:00:13.861423Z"}}